When you browse on this site, cookies collect data to enhance your experience and personalize the content and advertising you see.
Visit our Privacy Policy to learn more. By continuing to use the site, you agree to this use of cookies and data.
  • In Österreich
  • Länderverzeichnis
  • Für 7 Tage
  • Wassertemperatur
  • Satellitenkarten
  • Wetterkarte
  • News
  • Widgets
  • user-avatar
    Anmelden

    Stündliche Wetter Gdansk

    Heute, 19 Mai, Sonntag

    Zeit Temperatur Niederschläge Wind Luftdruck Luftfeuchtigkeit
    00:00 +15°C° 0 mm 1 m/S 753 mmHg 96%
    01:00 +15°C° 0 mm 1 m/S 753 mmHg 96%
    02:00 +15°C° 0 mm 1 m/S 753 mmHg 96%
    03:00 +15°C° 0 mm 1 m/S 753 mmHg 97%
    04:00 +15°C° 0 mm 1 m/S 753 mmHg 97%
    05:00 +16°C° 0.1 mm 2 m/S 753 mmHg 96%
    06:00 +16°C° 0.1 mm 2 m/S 753 mmHg 95%
    07:00 +17°C° 0 mm 3 m/S 753 mmHg 93%
    08:00 +17°C° 0.5 mm 3 m/S 753 mmHg 92%
    09:00 +18°C° 0.5 mm 2 m/S 753 mmHg 90%
    10:00 +19°C° 0.5 mm 2 m/S 753 mmHg 89%
    11:00 +19°C° 0.9 mm 2 m/S 752 mmHg 89%
    12:00 +19°C° 0.9 mm 3 m/S 752 mmHg 89%
    13:00 +19°C° 0 mm 3 m/S 753 mmHg 87%
    14:00 +19°C° 1.3 mm 3 m/S 752 mmHg 87%
    15:00 +20°C° 1.3 mm 3 m/S 752 mmHg 86%
    16:00 +20°C° 1.3 mm 3 m/S 752 mmHg 86%
    17:00 +19°C° 0.9 mm 3 m/S 751 mmHg 88%
    18:00 +19°C° 0.9 mm 2 m/S 751 mmHg 90%
    19:00 +18°C° 0.9 mm 2 m/S 751 mmHg 91%
    20:00 +18°C° 0 mm 2 m/S 751 mmHg 93%
    21:00 +17°C° 0 mm 2 m/S 751 mmHg 94%
    22:00 +16°C° 0 mm 2 m/S 751 mmHg 95%
    23:00 +16°C° 0 mm 2 m/S 751 mmHg 96%

    Morgen, 20 Mai, Montag

    Zeit Temperatur Niederschläge Wind Luftdruck Luftfeuchtigkeit
    00:00 +16°C° 0 mm 2 m/S 751 mmHg 96%
    01:00 +15°C° 0 mm 2 m/S 751 mmHg 96%
    02:00 +15°C° 0 mm 2 m/S 751 mmHg 96%
    03:00 +15°C° 0 mm 2 m/S 751 mmHg 97%
    04:00 +15°C° 0 mm 2 m/S 751 mmHg 97%
    05:00 +16°C° 0 mm 2 m/S 751 mmHg 95%
    06:00 +17°C° 0 mm 3 m/S 751 mmHg 93%
    07:00 +19°C° 0 mm 3 m/S 751 mmHg 90%
    08:00 +20°C° 0 mm 3 m/S 751 mmHg 85%
    09:00 +22°C° 0 mm 4 m/S 751 mmHg 80%
    10:00 +23°C° 0 mm 4 m/S 751 mmHg 75%
    11:00 +25°C° 0 mm 5 m/S 750 mmHg 74%
    12:00 +25°C° 0 mm 5 m/S 750 mmHg 72%
    13:00 +26°C° 0 mm 5 m/S 750 mmHg 71%
    14:00 +25°C° 0.1 mm 5 m/S 750 mmHg 74%
    15:00 +23°C° 0.1 mm 5 m/S 750 mmHg 76%
    16:00 +23°C° 0.1 mm 5 m/S 749 mmHg 79%
    17:00 +22°C° 0.9 mm 5 m/S 749 mmHg 83%
    18:00 +21°C° 0.9 mm 4 m/S 749 mmHg 87%
    19:00 +20°C° 0.9 mm 3 m/S 749 mmHg 92%
    20:00 +19°C° 0.2 mm 3 m/S 749 mmHg 93%
    21:00 +19°C° 0.2 mm 3 m/S 749 mmHg 94%
    22:00 +18°C° 0.2 mm 3 m/S 749 mmHg 95%
    23:00 +18°C° 0 mm 3 m/S 749 mmHg 95%

    übermorgen, 21 Mai, Dienstag

    Zeit Temperatur Niederschläge Wind Luftdruck Luftfeuchtigkeit
    00:00 +18°C° 0 mm 3 m/S 749 mmHg 95%
    01:00 +17°C° 0 mm 3 m/S 749 mmHg 95%
    02:00 +17°C° 0.2 mm 2 m/S 749 mmHg 95%
    03:00 +17°C° 0.2 mm 2 m/S 749 mmHg 95%
    04:00 +16°C° 0.2 mm 2 m/S 749 mmHg 96%
    05:00 +17°C° 0.4 mm 2 m/S 749 mmHg 94%
    06:00 +18°C° 0.4 mm 2 m/S 749 mmHg 92%
    07:00 +19°C° 0.4 mm 3 m/S 749 mmHg 91%
    08:00 +20°C° 0.7 mm 3 m/S 749 mmHg 87%
    09:00 +21°C° 0.7 mm 3 m/S 749 mmHg 83%
    10:00 +22°C° 0.7 mm 3 m/S 749 mmHg 79%
    11:00 +24°C° 1.2 mm 3 m/S 749 mmHg 77%
    12:00 +23°C° 1.2 mm 4 m/S 749 mmHg 74%
    13:00 +25°C° 1.2 mm 4 m/S 749 mmHg 71%
    14:00 +25°C° 0.4 mm 4 m/S 749 mmHg 71%
    15:00 +25°C° 0.4 mm 4 m/S 749 mmHg 71%
    16:00 +25°C° 0.4 mm 4 m/S 749 mmHg 71%
    17:00 +23°C° 0 mm 4 m/S 750 mmHg 76%
    18:00 +22°C° 0 mm 3 m/S 750 mmHg 82%
    19:00 +21°C° 0 mm 3 m/S 750 mmHg 87%
    20:00 +20°C° 0.1 mm 3 m/S 750 mmHg 90%
    21:00 +19°C° 0.1 mm 3 m/S 750 mmHg 93%
    22:00 +18°C° 0.1 mm 3 m/S 750 mmHg 95%
    23:00 +17°C° 0 mm 3 m/S 750 mmHg 95%

    22 Mai, Mittwoch

    Zeit Temperatur Niederschläge Wind Luftdruck Luftfeuchtigkeit
    00:00 +16°C° 0 mm 3 m/S 750 mmHg 95%
    01:00 +16°C° 0 mm 3 m/S 749 mmHg 96%
    02:00 +14°C° 0 mm 3 m/S 749 mmHg 96%
    03:00 +14°C° 0 mm 3 m/S 749 mmHg 97%
    04:00 +14°C° 0 mm 3 m/S 749 mmHg 98%
    05:00 +14°C° 0 mm 3 m/S 749 mmHg 93%
    06:00 +16°C° 0 mm 3 m/S 750 mmHg 88%
    07:00 +16°C° 0 mm 3 m/S 750 mmHg 83%
    08:00 +17°C° 0 mm 3 m/S 750 mmHg 81%
    09:00 +18°C° 0 mm 3 m/S 750 mmHg 78%
    10:00 +19°C° 0 mm 3 m/S 750 mmHg 76%
    11:00 +20°C° 0.1 mm 3 m/S 750 mmHg 75%
    12:00 +20°C° 0.1 mm 4 m/S 750 mmHg 73%
    13:00 +21°C° 0.1 mm 4 m/S 750 mmHg 72%
    14:00 +21°C° 0 mm 4 m/S 750 mmHg 73%
    15:00 +21°C° 0 mm 4 m/S 750 mmHg 73%
    16:00 +20°C° 0 mm 4 m/S 750 mmHg 74%
    17:00 +19°C° 0 mm 4 m/S 750 mmHg 78%
    18:00 +18°C° 0 mm 4 m/S 751 mmHg 82%
    19:00 +17°C° 0 mm 3 m/S 751 mmHg 86%
    20:00 +16°C° 0 mm 3 m/S 751 mmHg 88%
    21:00 +14°C° 0 mm 3 m/S 751 mmHg 90%
    22:00 +13°C° 0 mm 3 m/S 752 mmHg 93%
    23:00 +13°C° 0 mm 3 m/S 752 mmHg 93%

    23 Mai, Donnerstag

    Zeit Temperatur Niederschläge Wind Luftdruck Luftfeuchtigkeit
    00:00 +13°C° 0 mm 3 m/S 752 mmHg 94%
    01:00 +12°C° 0 mm 3 m/S 752 mmHg 95%
    02:00 +12°C° 0 mm 4 m/S 752 mmHg 94%
    03:00 +12°C° 0 mm 4 m/S 753 mmHg 94%
    04:00 +13°C° 0 mm 5 m/S 753 mmHg 94%
    05:00 +12°C° 0 mm 5 m/S 753 mmHg 88%
    06:00 +11°C° 0 mm 6 m/S 754 mmHg 83%
    07:00 +11°C° 0 mm 7 m/S 754 mmHg 78%
    08:00 +11°C° 0 mm 7 m/S 754 mmHg 74%
    09:00 +12°C° 0 mm 7 m/S 755 mmHg 71%
    10:00 +12°C° 0 mm 7 m/S 755 mmHg 67%
    11:00 +12°C° 0 mm 7 m/S 755 mmHg 68%
    12:00 +11°C° 0 mm 7 m/S 756 mmHg 70%
    13:00 +11°C° 0 mm 6 m/S 756 mmHg 71%
    14:00 +13°C° 0 mm 6 m/S 756 mmHg 70%
    15:00 +14°C° 0 mm 7 m/S 756 mmHg 69%
    16:00 +15°C° 0 mm 7 m/S 756 mmHg 67%
    17:00 +14°C° 0 mm 6 m/S 756 mmHg 71%
    18:00 +12°C° 0 mm 5 m/S 756 mmHg 74%
    19:00 +10°C° 0 mm 5 m/S 756 mmHg 78%
    20:00 +10°C° 0 mm 5 m/S 756 mmHg 81%
    21:00 +10°C° 0 mm 4 m/S 756 mmHg 85%
    22:00 +8°C° 0 mm 4 m/S 756 mmHg 88%
    23:00 +8°C° 0 mm 4 m/S 756 mmHg 88%

    24 Mai, Freitag

    Zeit Temperatur Niederschläge Wind Luftdruck Luftfeuchtigkeit
    00:00 +8°C° 0 mm 4 m/S 756 mmHg 88%
    01:00 +7°C° 0 mm 4 m/S 756 mmHg 88%
    02:00 +7°C° 0 mm 4 m/S 755 mmHg 87%
    03:00 +7°C° 0 mm 4 m/S 755 mmHg 87%
    04:00 +7°C° 0 mm 4 m/S 755 mmHg 87%
    05:00 +8°C° 0 mm 4 m/S 755 mmHg 82%
    06:00 +11°C° 0 mm 4 m/S 755 mmHg 78%
    07:00 +13°C° 0 mm 5 m/S 755 mmHg 73%
    08:00 +14°C° 0 mm 5 m/S 754 mmHg 69%
    09:00 +16°C° 0 mm 5 m/S 754 mmHg 65%
    10:00 +17°C° 0 mm 5 m/S 754 mmHg 61%
    11:00 +17°C° 0 mm 5 m/S 754 mmHg 59%
    12:00 +19°C° 0 mm 5 m/S 753 mmHg 57%
    13:00 +19°C° 0 mm 5 m/S 753 mmHg 55%
    14:00 +19°C° 0 mm 4 m/S 753 mmHg 55%
    15:00 +19°C° 0 mm 4 m/S 753 mmHg 56%
    16:00 +19°C° 0 mm 4 m/S 752 mmHg 56%
    17:00 +18°C° 0 mm 3 m/S 752 mmHg 61%
    18:00 +17°C° 0 mm 2 m/S 752 mmHg 67%
    19:00 +16°C° 0 mm 1 m/S 752 mmHg 72%
    20:00 +15°C° 0 mm 1 m/S 752 mmHg 75%
    21:00 +14°C° 0 mm 1 m/S 752 mmHg 77%
    22:00 +13°C° 0 mm 1 m/S 752 mmHg 80%
    23:00 +13°C° 0 mm 2 m/S 751 mmHg 81%
    Mehr zeigen